Location: Colonia Mina de C?rbuni
(46.1667°N, 22.7167°E)
Time: 17:14:52
(UTC+00:00)

SL-16 R/B - Pass Details

Date: 04 February 2023
Orbit: 842 x 846 km, 71.0° (Epoch: 29 March)

Event Time Altitude Azimuth Distance (km) Brightness Sun altitude
Rises 16:32:55 0° 207° (SSW) 3,386 6.0 -9.9°
Reaches altitude 10° 16:35:21 10° 209° (SSW) 2,455 5.2 -10.3°
Maximum altitude 16:41:00 81° 296° (WNW) 859 2.3 -11.2°
Drops below altitude 10° 16:46:42 10° 25° (NNE) 2,474 4.3 -12.2°
Enters shadow 16:49:08 - 26° (NNE) 3,400 5.0 -12.6°
